Weather History for KBMG - January, 2012

Change the Weather History Date:

Monday, January 2, 2012

  Actual Average Record
Temperature  
Mean Temperature 25 °F 29 °F  
Max Temperature 32 °F 38 °F 66 °F (2006)
Min Temperature 18 °F 21 °F 1 °F (2001)
Degree Days  
Heating Degree Days 40 36  
Month to date heating degree days 62 72  
Since 1 July heating degree days 1800 2145  
Cooling Degree Days 0 0  
Month to date cooling degree days 0 0  
Year to date cooling degree days 0 0  
Moisture  
Dew Point 15 °F    
Average Humidity 67    
Maximum Humidity 84    
Minimum Humidity 49    
Precipitation  
Precipitation T in 0.13 in 1.01 in (1999)
Month to date precipitation T 0.27  
Year to date precipitation T 0.27  
Sea Level Pressure  
Sea Level Pressure 30.20 in    
Wind  
Wind Speed 12 mph (WNW)    
Max Wind Speed 22 mph    
Max Gust Speed 38 mph    
Visibility 6 miles    
Events Snow    
T = Trace of Precipitation, MM = Missing Value Source: NWS Daily Summary

Daily Weather History Graph

Daily Weather History Graph

Search for Another Location

Airport or City:

Trip Planner

Search our weather history database for the weather conditions in past years. The results will help you decide how hot, cold, wet, or windy it might be!

Date:

Astronomy

Jan. 02, 2012 Rise Set
Actual Time 8:05 AM EST 5:34 PM EST
Civil Twilight 7:35 AM EST 6:04 PM EST
Nautical Twilight 7:02 AM EST 6:38 PM EST
Astronomical Twilight 6:30 AM EST 7:10 PM EST
Moon 12:50 PM EST (1/2) 1:59 AM EST (1/2)
Length of Visible Light 10h 28m
Length of Day
9h 29m
Waxing Gibbous, 63% of the Moon is Illuminated
Jan 2
Waxing Gibbous
Jan 9
Full
Jan 16
Last Quarter
Jan 23
New
Jan 30
First Quarter

Hourly Weather History & Observations

Time (EST) Temp. Windchill Dew Point Humidity Pressure Visibility Wind Dir Wind Speed Gust Speed Precip Events Conditions
12:53 AM 32.0 °F 22.1 °F 16.0 °F 52% 30.18 in 10.0 mi WNW 13.8 mph 23.0 mph 0.00 in   Overcast
1:53 AM 30.9 °F 18.7 °F 18.0 °F 59% 30.16 in 10.0 mi WNW 19.6 mph 28.8 mph N/A   Overcast
2:53 AM 30.0 °F 20.0 °F 17.1 °F 59% 30.17 in 10.0 mi WNW 12.7 mph 23.0 mph 0.00 in   Overcast
3:53 AM 30.0 °F 18.7 °F 16.0 °F 56% 30.16 in 9.0 mi WNW 16.1 mph 33.4 mph 0.00 in   Overcast
4:53 AM 30.0 °F 21.1 °F 16.0 °F 56% 30.15 in 10.0 mi WNW 10.4 mph 20.7 mph N/A   Overcast
5:53 AM 28.9 °F 18.2 °F 15.1 °F 56% 30.14 in 10.0 mi WNW 13.8 mph 20.7 mph N/A   Overcast
6:53 AM 28.0 °F 16.5 °F 17.1 °F 63% 30.14 in 6.0 mi WNW 15.0 mph 23.0 mph 0.00 in Snow Light Snow
7:02 AM 28.4 °F 18.0 °F 19.4 °F 69% 30.12 in 2.5 mi WNW 12.7 mph 21.9 mph 0.00 in Snow Light Snow
7:13 AM 26.6 °F 16.8 °F 17.6 °F 69% 30.12 in 5.0 mi NW 10.4 mph 24.2 mph 0.00 in Snow Light Snow
7:27 AM 26.6 °F 14.3 °F 15.8 °F 64% 30.12 in 9.0 mi WNW 16.1 mph 32.2 mph 0.00 in   Overcast
8:22 AM 24.8 °F 11.1 °F 15.8 °F 69% 30.14 in 4.0 mi WNW 18.4 mph 25.3 mph 0.00 in Snow Light Snow
8:40 AM 24.8 °F 15.3 °F 14.0 °F 64% 30.14 in 9.0 mi NW 9.2 mph 25.3 mph 0.00 in Snow Light Snow
8:44 AM 24.8 °F 12.4 °F 14.0 °F 64% 30.15 in 2.0 mi WNW 15.0 mph 24.2 mph 0.00 in Snow Light Snow
8:48 AM 24.8 °F 11.5 °F 15.8 °F 69% 30.15 in 0.8 mi WNW 17.3 mph 24.2 mph 0.00 in Snow Light Snow
8:53 AM 23.0 °F 11.1 °F 18.0 °F 81% 30.18 in 0.5 mi WNW 12.7 mph 24.2 mph 0.00 in Snow Snow
9:03 AM 24.8 °F 12.4 °F 17.6 °F 74% 30.15 in 2.0 mi WNW 15.0 mph 24.2 mph 0.00 in Snow Light Snow
9:13 AM 23.0 °F 9.6 °F 17.6 °F 80% 30.16 in 1.2 mi WNW 16.1 mph 25.3 mph 0.00 in Snow Light Snow
9:25 AM 23.0 °F 10.1 °F 17.6 °F 80% 30.17 in 2.5 mi WNW 15.0 mph 31.1 mph 0.00 in Snow Light Snow
9:33 AM 23.0 °F 9.6 °F 17.6 °F 80% 30.17 in 6.0 mi WNW 16.1 mph 23.0 mph 0.00 in Snow Light Snow
9:44 AM 23.0 °F 11.1 °F 17.6 °F 80% 30.17 in 0.8 mi WNW 12.7 mph 25.3 mph 0.00 in Snow Light Snow
9:53 AM 23.0 °F 10.6 °F 17.1 °F 78% 30.20 in 1.0 mi WNW 13.8 mph 20.7 mph 0.00 in Snow Light Snow
9:58 AM 23.0 °F 11.1 °F 15.8 °F 74% 30.17 in 3.0 mi WNW 12.7 mph 20.7 mph 0.00 in Snow Light Snow
10:13 AM 23.0 °F 9.6 °F 15.8 °F 74% 30.18 in 8.0 mi West 16.1 mph 24.2 mph 0.00 in Snow Light Snow
10:42 AM 23.0 °F 11.1 °F 15.8 °F 74% 30.18 in 2.0 mi WNW 12.7 mph 23.0 mph 0.00 in Snow Light Snow
10:51 AM 23.0 °F 9.2 °F 14.0 °F 68% 30.18 in 4.0 mi West 17.3 mph 26.5 mph 0.00 in Snow Light Snow
10:53 AM 23.0 °F 10.1 °F 14.0 °F 68% 30.21 in 5.0 mi WNW 15.0 mph 26.5 mph 0.00 in Snow Light Snow
11:53 AM 23.0 °F 8.0 °F 12.0 °F 63% 30.22 in 9.0 mi WNW 20.7 mph 31.1 mph 0.00 in Snow Light Snow
12:50 PM 24.8 °F 12.4 °F 14.0 °F 64% 30.18 in 6.0 mi WNW 15.0 mph 23.0 mph 0.00 in Snow Light Snow
12:53 PM 24.1 °F 12.5 °F 14.0 °F 65% 30.21 in 5.0 mi WNW 12.7 mph 23.0 mph 0.00 in Snow Light Snow
1:34 PM 24.8 °F 12.9 °F 12.2 °F 59% 30.16 in 9.0 mi WNW 13.8 mph 20.7 mph 0.00 in   Overcast
1:53 PM 25.0 °F 14.2 °F 12.0 °F 58% 30.19 in 10.0 mi WNW 11.5 mph 20.7 mph 0.00 in   Overcast
2:34 PM 23.0 °F 10.6 °F 14.0 °F 68% 30.18 in 1.0 mi NNW 13.8 mph 23.0 mph 0.00 in Snow Light Snow
2:37 PM 21.2 °F 8.3 °F 15.8 °F 80% 30.18 in 0.2 mi NNW 13.8 mph 29.9 mph 0.00 in Snow Heavy Snow
2:53 PM 23.0 °F 10.6 °F 15.1 °F 72% 30.21 in 3.0 mi WNW 13.8 mph 20.7 mph 0.00 in Snow Light Snow
3:06 PM 24.8 °F 11.9 °F 14.0 °F 64% 30.18 in 10.0 mi WNW 16.1 mph 24.2 mph 0.00 in   Overcast
3:53 PM 24.1 °F 13.7 °F 14.0 °F 65% 30.23 in 8.0 mi NW 10.4 mph 20.7 mph 0.00 in Snow Light Snow
3:58 PM 23.0 °F 11.1 °F 15.8 °F 74% 30.21 in 1.2 mi NW 12.7 mph 20.7 mph 0.00 in Snow Light Snow
4:11 PM 23.0 °F 12.4 °F 15.8 °F 74% 30.22 in 2.0 mi NW 10.4 mph 19.6 mph 0.00 in Snow Light Snow
4:18 PM 23.0 °F 12.4 °F 15.8 °F 74% 30.22 in 4.0 mi NW 10.4 mph 17.3 mph 0.00 in Snow Light Snow
4:20 PM 21.2 °F 12.6 °F 15.8 °F 80% 30.22 in 1.8 mi Variable 6.9 mph 17.3 mph 0.00 in Snow Light Snow
4:31 PM 23.0 °F 13.9 °F 15.8 °F 74% 30.23 in 3.0 mi NW 8.1 mph - 0.00 in Snow Light Snow
4:45 PM 23.0 °F 15.8 °F 15.8 °F 74% 30.23 in 1.8 mi NNW 5.8 mph - 0.00 in Snow Light Snow
4:53 PM 21.9 °F 13.4 °F 17.1 °F 82% 30.27 in 1.0 mi Variable 6.9 mph - 0.00 in Snow Light Snow
5:08 PM 21.2 °F 12.6 °F 15.8 °F 80% 30.24 in 3.0 mi NW 6.9 mph - 0.00 in Snow Light Snow
5:17 PM 21.2 °F 9.5 °F 15.8 °F 80% 30.25 in 2.0 mi NW 11.5 mph 17.3 mph 0.00 in Snow Light Snow
5:41 PM 21.2 °F 11.7 °F 15.8 °F 80% 30.26 in 6.0 mi WNW 8.1 mph - 0.00 in Snow Light Snow
5:53 PM 21.0 °F 13.4 °F 15.1 °F 78% 30.29 in 10.0 mi WNW 5.8 mph - 0.00 in   Overcast
6:53 PM 19.9 °F 12.1 °F 14.0 °F 78% 30.31 in 10.0 mi WNW 5.8 mph - N/A   Mostly Cloudy
7:53 PM 21.0 °F 13.4 °F 14.0 °F 74% 30.33 in 10.0 mi WNW 5.8 mph - N/A   Overcast
8:53 PM 21.0 °F 11.4 °F 7.0 °F 55% 30.34 in 10.0 mi NW 8.1 mph - N/A   Partly Cloudy
9:53 PM 19.9 °F 9.3 °F 6.1 °F 55% 30.35 in 10.0 mi NW 9.2 mph 19.6 mph N/A   Clear
10:53 PM 19.9 °F 11.1 °F 7.0 °F 57% 30.37 in 10.0 mi Variable 6.9 mph - N/A   Mostly Cloudy
11:53 PM 18.0 °F 7.7 °F 8.1 °F 65% 30.37 in 10.0 mi WNW 8.1 mph - N/A   Clear